FW7722 Weather Reports


time (UTC)temp
C
wind
direction
speed
KPH
gust
KPH
rain 1hr
cm
rain 24hr
cm
rain mn
cm
humidity
%
barometer
mb
20260901030536 20 22 0.0 0.0 0.00 0.00 0.00 95 1018.2
20260901030036 20 22 0.0 0.0 0.00 0.00 0.00 95 1018.3
20260901025530 20 22 0.0 0.0 0.00 0.00 0.00 95 1018.2
20260901025030 20 22 0.0 0.0 0.00 0.00 0.00 96 1018.1
20260901024526 20 22 0.0 0.0 0.00 0.00 0.00 96 1018.2
20260901024025 20 22 0.0 0.0 0.00 0.00 0.00 95 1018.2
20260901023524 20 22 0.0 0.0 0.00 0.00 0.00 95 1018.1
20260901023019 20 22 0.0 0.0 0.00 0.00 0.00 95 1018.2
20260901022515 20 22 0.0 0.0 0.00 0.00 0.00 95 1018.4
20260901022009 20 22 0.0 0.0 0.00 0.00 0.00 95 1018.3
20260901021505 20 22 0.0 0.0 0.00 0.00 0.00 95 1018.4
20260901021000 20 22 0.0 0.0 0.00 0.00 0.00 95 1018.2
20260901020456 20 22 0.0 0.0 0.00 0.00 0.00 95 1018.1
20260901015954 20 22 0.0 0.0 0.00 0.00 0.00 95 1018.1
20260901015451 20 22 0.0 0.0 0.00 0.00 0.00 95 1018.1
20260901014951 20 22 0.0 0.0 0.00 0.00 0.00 94 1018.3
20260901014447 20 22 0.0 0.0 0.00 0.00 0.00 94 1018.2
20260901013942 20 22 0.0 0.0 0.00 0.00 0.00 94 1017.9
20260901013438 20 22 0.0 0.0 0.00 0.00 0.00 94 1018.1
20260901012934 20 22 0.0 0.0 0.00 0.00 0.00 94 1018.2
20260901012433 20 22 0.0 0.0 0.00 0.00 0.00 93 1018.2
20260901011929 20 22 0.0 0.0 0.00 0.00 0.00 93 1018.1
20260901011425 20 22 0.0 0.0 0.00 0.00 0.00 93 1018.1
20260901010923 20 22 0.0 0.0 0.00 0.00 0.00 93 1018.1
20260901010418 20 22 0.0 0.0 0.00 0.00 0.00 93 1018.2
20260901005917 20 22 0.0 0.0 0.00 0.00 0.00 93 1018.1
20260901005412 21 22 0.0 0.0 0.00 0.00 0.00 92 1018.1
20260901004907 21 22 0.0 0.0 0.00 0.00 0.00 92 1018.0
20260901004406 21 22 0.0 0.0 0.00 0.00 0.00 92 1018.1
20260901003902 21 22 0.0 0.0 0.00 0.00 0.00 91 1018.2
20260901003356 21 22 0.0 0.0 0.00 0.00 0.00 91 1017.9
20260901002855 21 22 0.0 0.0 0.00 0.00 0.00 91 1017.9
20260901002354 21 22 0.0 0.0 0.00 0.00 0.00 90 1018.0
20260901001849 21 22 0.0 0.0 0.00 0.00 0.00 90 1017.9
20260901001345 21 22 0.0 0.0 0.00 0.00 0.00 89 1018.0
20260901000840 21 22 0.0 0.0 0.00 0.00 0.00 89 1017.7
20260901000336 21 22 0.0 0.0 0.00 0.00 0.00 89 1017.8
20260831235833 21 22 0.0 0.0 0.00 0.00 0.00 89 1017.8
20260831235330 21 22 0.0 0.0 0.00 0.00 0.00 89 1017.7
20260831234825 22 22 0.0 0.0 0.00 0.00 0.00 88 1017.8
20260831234324 22 22 0.0 0.0 0.00 0.00 0.00 88 1017.6
20260831233820 22 22 0.0 0.0 0.00 0.00 0.00 88 1017.6
20260831233315 22 22 0.0 0.0 0.00 0.00 0.00 87 1017.5
20260831232810 22 22 0.0 0.0 0.00 0.00 0.00 87 1017.6
20260831232307 22 22 0.0 0.0 0.00 0.00 0.00 85 1017.6
20260831231803 22 22 0.0 0.0 0.00 0.00 0.00 83 1017.7
20260831231259 23 22 0.0 0.0 0.00 0.00 0.00 84 1017.9
20260831230753 23 22 0.0 0.0 0.00 0.00 0.00 82 1018.1
20260831230248 23 22 0.0 0.0 0.00 0.00 0.00 82 1018.0
20260831225747 23 22 0.0 0.0 0.00 0.00 0.00 81 1018.0
20260831225243 23 22 0.0 0.0 0.00 0.00 0.00 80 1018.1
20260831224738 23 22 0.0 0.0 0.00 0.00 0.00 80 1018.1
20260831224233 24 22 0.0 0.0 0.00 0.00 0.00 78 1018.1
20260831223728 24 22 0.0 0.0 0.00 0.00 0.00 76 1018.2
20260831223225 25 22 0.0 0.0 0.00 0.00 0.00 73 1018.2
20260831222720 25 22 0.0 0.0 0.00 0.00 0.00 72 1018.3
20260831222216 25 22 0.0 0.0 0.00 0.00 0.00 69 1018.3
20260831221711 25 22 0.0 0.0 0.00 0.00 0.00 70 1018.2
20260831221207 25 22 0.0 0.0 0.00 0.00 0.00 70 1018.2
20260831220701 25 22 0.0 0.0 0.00 0.00 0.00 73 1018.4
20260831220157 25 27 0.0 0.0 0.00 0.00 0.00 69 1018.4
20260831215651 26 297 0.0 0.0 0.00 0.00 0.00 70 1018.4
20260831215147 26 298 0.0 0.0 0.00 0.00 0.00 66 1018.5
20260831214644 26 298 0.0 0.0 0.00 0.00 0.00 68 1018.4
20260831214141 25 298 0.0 0.0 0.00 0.00 0.00 71 1018.6
20260831213637 25 298 0.0 0.0 0.00 0.00 0.00 70 1018.5
20260831213132 25 297 0.0 0.0 0.00 0.00 0.00 72 1018.6
20260831212628 25 297 0.0 0.0 0.00 0.00 0.00 72 1018.7
20260831212124 25 297 0.0 0.0 0.00 0.00 0.00 71 1018.7
20260831211624 25 297 0.0 0.0 0.00 0.00 0.00 69 1018.8
20260831211123 25 297 0.0 0.0 0.00 0.00 0.00 70 1018.8
20260831210618 25 297 0.0 0.0 0.00 0.00 0.00 72 1018.9
20260831210115 25 297 0.0 0.0 0.00 0.00 0.00 72 1018.8
20260831205614 25 297 0.0 0.0 0.00 0.00 0.00 75 1018.9
20260831205110 24 296 0.0 0.0 0.00 0.00 0.00 81 1018.9
20260831204610 24 296 0.0 0.0 0.00 0.00 0.00 82 1018.6
20260831204108 23 296 0.0 0.0 0.00 0.00 0.00 85 1018.8
20260831203608 23 296 0.0 0.0 0.00 0.00 0.00 84 1019.0
20260831203103 23 296 0.0 0.0 0.00 0.00 0.00 83 1018.8
20260831202602 24 296 0.0 0.0 0.00 0.00 0.00 81 1019.0
20260831202101 24 296 0.0 0.0 0.00 0.00 0.00 83 1019.1
20260831201600 24 296 0.0 0.0 0.00 0.00 0.00 83 1019.1
20260831201055 24 296 0.0 0.0 0.00 0.00 0.00 79 1019.1
20260831200551 24 296 0.0 0.0 0.00 0.00 0.00 83 1019.1
20260831200051 24 296 0.0 0.0 0.00 0.00 0.00 80 1019.2
20260831195547 24 296 0.0 0.0 0.00 0.00 0.00 79 1019.1
20260831195042 25 296 0.0 0.0 0.00 0.00 0.00 76 1019.1
20260831194537 25 296 0.0 0.0 0.00 0.00 0.00 80 1019.3
20260831194032 24 296 0.0 0.0 0.00 0.00 0.00 77 1019.2
20260831193527 25 296 0.0 0.0 0.00 0.00 0.00 78 1019.2
20260831193022 25 296 0.0 0.0 0.00 0.00 0.00 75 1019.5
20260831192517 25 296 0.0 0.0 0.00 0.00 0.00 70 1019.4
20260831192013 25 297 0.0 0.0 0.00 0.00 0.00 72 1019.6
20260831191508 25 297 0.0 0.0 0.00 0.00 0.00 72 1019.6
20260831191004 25 297 3.2 3.2 0.00 0.00 0.00 70 1019.8
20260831190459 25 78 1.6 3.2 0.00 0.00 0.00 73 1020.0
20260831185957 25 78 0.0 0.0 0.00 0.00 0.00 73 1019.7
20260831185454 25 78 0.0 0.0 0.00 0.00 0.00 68 1019.7
20260831184954 25 78 0.0 0.0 0.00 0.00 0.00 69 1019.6
20260831184448 25 78 0.0 0.0 0.00 0.00 0.00 70 1019.8
20260831183944 25 78 0.0 0.0 0.00 0.00 0.00 69 1019.9
20260831183443 25 78 0.0 0.0 0.00 0.00 0.00 69 1019.9
20260831182943 25 78 0.0 0.0 0.00 0.00 0.00 70 1019.9
20260831182438 25 78 0.0 0.0 0.00 0.00 0.00 71 1019.7
20260831181933 25 78 0.0 0.0 0.00 0.00 0.00 72 1019.8
20260831181429 25 78 0.0 0.0 0.00 0.00 0.00 72 1019.7
20260831180929 25 78 0.0 0.0 0.00 0.00 0.00 70 1019.9
20260831180423 25 78 0.0 0.0 0.00 0.00 0.00 67 1019.8
20260831175923 25 78 0.0 0.0 0.00 0.00 0.00 70 1019.6
20260831175419 25 78 0.0 0.0 0.00 0.00 0.00 66 1019.8
20260831174915 26 78 0.0 0.0 0.00 0.00 0.00 65 1019.8
20260831174411 26 78 0.0 0.0 0.00 0.00 0.00 64 1019.7
20260831173910 26 78 0.0 0.0 0.00 0.00 0.00 65 1019.9
20260831173409 26 78 3.2 3.2 0.00 0.00 0.00 64 1019.8
20260831172905 25 78 0.0 0.0 0.00 0.00 0.00 64 1020.1
20260831172401 25 78 0.0 0.0 0.00 0.00 0.00 64 1020.0
20260831171900 26 78 0.0 0.0 0.00 0.00 0.00 65 1019.9
20260831171356 26 62 1.6 3.2 0.00 0.00 0.00 66 1019.9
20260831170853 26 332 1.6 3.2 0.00 0.00 0.00 62 1020.1
20260831170349 27 347 0.0 0.0 0.00 0.00 0.00 60 1019.9
20260831165845 26 346 0.0 0.0 0.00 0.00 0.00 64 1020.0
20260831165341 26 344 0.0 0.0 0.00 0.00 0.00 61 1020.0
20260831164837 26 304 0.0 0.0 0.00 0.00 0.00 59 1019.9
20260831164333 26 329 0.0 0.0 0.00 0.00 0.00 60 1020.0
20260831163828 27 3 3.2 3.2 0.00 0.00 0.00 61 1019.8
20260831163324 27 5 3.2 3.2 0.00 0.00 0.00 61 1019.9
20260831162822 26 0 0.0 0.0 0.00 0.00 0.00 62 1020.0
20260831162318 26 0 1.6 3.2 0.00 0.00 0.00 67 1020.0
20260831161816 26 242 0.0 0.0 0.00 0.00 0.00 66 1020.2
20260831161313 26 193 8.0 8.0 0.00 0.00 0.00 64 1020.1
20260831160814 26 90 3.2 3.2 0.00 0.00 0.00 64 1019.9
20260831160308 26 338 0.0 0.0 0.00 0.00 0.00 68 1020.3
20260831155808 25 337 0.0 0.0 0.00 0.00 0.00 70 1020.3
20260831155306 25 338 0.0 0.0 0.00 0.00 0.00 72 1020.3
20260831154759 25 330 4.8 4.8 0.00 0.00 0.00 70 1020.3
20260831154255 25 350 3.2 4.8 0.00 0.00 0.00 71 1020.4
20260831153754 24 352 0.0 0.0 0.00 0.00 0.00 74 1020.2
20260831153249 24 352 0.0 0.0 0.00 0.00 0.00 75 1020.2
20260831152745 24 351 0.0 0.0 0.00 0.00 0.00 76 1020.2
20260831152242 23 351 3.2 3.2 0.00 0.00 0.00 75 1020.1
20260831151741 23 351 0.0 0.0 0.00 0.00 0.00 76 1020.1
20260831151241 23 351 3.2 3.2 0.00 0.00 0.00 77 1020.1
20260831150736 23 351 0.0 0.0 0.00 0.00 0.00 76 1020.2
20260831150231 23 351 3.2 3.2 0.00 0.00 0.00 76 1020.4
20260831145730 23 352 0.0 0.0 0.00 0.00 0.00 76 1020.3
20260831145227 23 352 0.0 0.0 0.00 0.00 0.00 75 1020.3
20260831144722 23 352 3.2 3.2 0.00 0.00 0.00 77 1020.5
20260831144219 23 352 0.0 3.2 0.00 0.00 0.00 76 1020.4
20260831143718 23 352 0.0 0.0 0.00 0.00 0.00 75 1020.4
20260831143214 23 352 0.0 0.0 0.00 0.00 0.00 77 1020.7
20260831142709 23 352 1.6 0.0 0.00 0.00 0.00 76 1020.7
20260831142205 23 352 1.6 3.2 0.00 0.00 0.00 76 1020.5
20260831141703 23 352 1.6 3.2 0.00 0.00 0.00 76 1020.5
20260831141159 23 352 0.0 0.0 0.00 0.00 0.00 75 1020.8
20260831140658 23 352 1.6 3.2 0.00 0.00 0.00 77 1020.4
20260831140153 23 352 1.6 3.2 0.00 0.00 0.00 76 1020.6
20260831135651 23 352 1.6 0.0 0.00 0.00 0.00 77 1020.3
20260831135147 23 352 1.6 3.2 0.00 0.00 0.00 78 1020.4
20260831134643 23 352 0.0 0.0 0.00 0.00 0.00 78 1020.4
20260831134138 23 354 0.0 0.0 0.00 0.00 0.00 78 1020.4
20260831133637 23 354 0.0 0.0 0.00 0.00 0.00 77 1020.3
20260831133132 23 354 0.0 0.0 0.00 0.00 0.00 79 1020.3
20260831132628 22 354 0.0 0.0 0.00 0.00 0.00 82 1020.2
20260831132127 22 354 0.0 0.0 0.00 0.00 0.00 84 1020.1
20260831131622 22 354 0.0 0.0 0.00 0.00 0.00 84 1020.3
20260831131118 22 354 0.0 0.0 0.00 0.00 0.00 84 1020.3
20260831130613 22 354 0.0 0.0 0.00 0.00 0.00 84 1020.2
20260831130109 22 354 0.0 0.0 0.00 0.00 0.00 85 1020.2
20260831125607 22 354 0.0 0.0 0.00 0.00 0.00 85 1020.3
20260831125102 22 354 0.0 0.0 0.00 0.00 0.00 85 1020.2
20260831124559 22 354 0.0 0.0 0.00 0.00 0.00 85 1020.5
20260831124054 22 354 0.0 0.0 0.00 0.00 0.00 86 1020.3
20260831123554 22 354 0.0 0.0 0.00 0.00 0.00 86 1020.3
20260831123048 21 354 0.0 0.0 0.00 0.00 0.00 88 1020.3
20260831122548 21 354 0.0 0.0 0.00 0.00 0.00 88 1020.3
20260831122044 21 354 0.0 0.0 0.00 0.00 0.00 89 1020.4
20260831121544 21 354 0.0 0.0 0.00 0.00 0.00 90 1020.3
20260831121040 21 354 0.0 0.0 0.00 0.00 0.00 91 1020.1
20260831120539 21 354 0.0 0.0 0.00 0.00 0.00 91 1020.2
20260831120035 21 354 0.0 0.0 0.00 0.00 0.00 92 1020.1
20260831115531 21 354 0.0 0.0 0.00 0.00 0.00 92 1020.3
20260831115026 20 354 0.0 0.0 0.00 0.00 0.00 94 1020.2
20260831114525 20 354 0.0 0.0 0.00 0.00 0.00 96 1020.1
20260831114026 20 354 0.0 0.0 0.00 0.00 0.00 97 1020.1
20260831113525 20 354 0.0 0.0 0.00 0.00 0.00 97 1020.1
20260831113021 20 354 0.0 0.0 0.00 0.00 0.00 97 1019.9
20260831112520 20 354 0.0 0.0 0.00 0.00 0.00 97 1019.9
20260831112015 20 354 0.0 0.0 0.00 0.00 0.00 97 1020.0
20260831111511 20 354 0.0 0.0 0.00 0.00 0.00 97 1019.9
20260831111007 20 354 0.0 0.0 0.00 0.00 0.00 97 1019.8
20260831110502 20 354 0.0 0.0 0.00 0.00 0.00 97 1019.7
20260831110001 20 354 0.0 0.0 0.00 0.00 0.00 98 1019.7
20260831105456 20 354 0.0 0.0 0.00 0.00 0.00 98 1019.7
20260831104951 20 354 0.0 0.0 0.00 0.00 0.00 98 1019.7
20260831104447 20 354 0.0 0.0 0.00 0.00 0.00 98 1019.5
20260831103942 20 354 0.0 0.0 0.00 0.00 0.00 98 1019.5
20260831103438 20 354 0.0 0.0 0.00 0.00 0.00 98 1019.5
20260831102933 20 354 0.0 0.0 0.00 0.00 0.00 98 1019.7
20260831102433 20 354 0.0 0.0 0.00 0.00 0.00 98 1019.6
20260831101928 20 354 0.0 0.0 0.00 0.00 0.00 98 1019.4
20260831101423 20 354 0.0 0.0 0.00 0.00 0.00 98 1019.4
20260831100919 20 354 0.0 0.0 0.00 0.00 0.00 98 1019.5
20260831100415 20 354 0.0 0.0 0.00 0.00 0.00 98 1019.2
20260831095909 20 354 0.0 0.0 0.00 0.00 0.00 98 1019.1
20260831095409 20 354 0.0 0.0 0.00 0.00 0.00 98 1019.2
20260831094904 20 354 0.0 0.0 0.00 0.00 0.00 98 1019.0
20260831094400 20 354 0.0 0.0 0.00 0.00 0.00 98 1019.0
20260831093855 20 354 0.0 0.0 0.00 0.00 0.00 98 1019.0
20260831093350 20 354 0.0 0.0 0.00 0.00 0.00 98 1018.9
20260831092847 20 354 0.0 0.0 0.00 0.00 0.00 98 1019.1
20260831092342 20 354 0.0 0.0 0.00 0.00 0.00 98 1019.0
20260831091837 20 354 0.0 0.0 0.00 0.00 0.00 98 1018.8
20260831091333 20 354 0.0 0.0 0.00 0.00 0.00 98 1018.7
20260831090828 20 354 0.0 0.0 0.00 0.00 0.00 98 1018.8
20260831090325 20 354 0.0 0.0 0.00 0.00 0.00 98 1018.9
20260831085821 20 354 0.0 0.0 0.00 0.00 0.00 98 1019.1
20260831085320 20 354 0.0 0.0 0.00 0.00 0.00 98 1018.9
20260831084815 20 354 0.0 0.0 0.00 0.00 0.00 98 1018.8
20260831084311 20 354 0.0 0.0 0.00 0.00 0.00 98 1018.9
20260831083807 20 354 0.0 0.0 0.00 0.00 0.00 98 1019.0
20260831083303 20 354 0.0 0.0 0.00 0.00 0.00 98 1018.9
20260831082801 20 354 0.0 0.0 0.00 0.00 0.00 98 1018.8
20260831082256 20 354 0.0 0.0 0.00 0.00 0.00 98 1018.8
20260831081752 21 354 0.0 0.0 0.00 0.00 0.00 98 1018.8
20260831081248 21 354 0.0 0.0 0.00 0.00 0.00 98 1018.8
20260831080743 21 354 0.0 0.0 0.00 0.00 0.00 98 1019.0
20260831080243 21 354 0.0 0.0 0.00 0.00 0.00 98 1018.9
20260831075739 21 354 0.0 0.0 0.00 0.00 0.00 98 1018.9
20260831075235 21 354 0.0 0.0 0.00 0.00 0.00 98 1018.7
20260831074734 21 354 0.0 0.0 0.00 0.00 0.00 98 1018.7
20260831074233 21 354 0.0 0.0 0.00 0.00 0.00 98 1018.9
20260831073730 21 354 0.0 0.0 0.00 0.00 0.00 98 1019.0
20260831073228 21 354 0.0 0.0 0.00 0.00 0.00 97 1018.9
20260831072723 21 354 0.0 0.0 0.00 0.00 0.00 97 1018.7
20260831072220 21 354 0.0 0.0 0.00 0.00 0.00 97 1019.1
20260831071720 21 354 0.0 0.0 0.00 0.00 0.00 97 1018.8
20260831071214 21 354 0.0 0.0 0.00 0.00 0.00 97 1018.8
20260831070709 21 354 0.0 0.0 0.00 0.00 0.00 97 1018.7
20260831070208 21 354 0.0 0.0 0.00 0.00 0.00 97 1018.6
20260831065708 21 354 0.0 0.0 0.00 0.00 0.00 97 1018.8
20260831065207 21 354 0.0 0.0 0.00 0.00 0.00 97 1018.9
20260831064701 21 354 0.0 0.0 0.00 0.00 0.00 97 1018.9
20260831064157 21 354 0.0 0.0 0.00 0.00 0.00 97 1018.8
20260831063653 21 354 0.0 0.0 0.00 0.00 0.00 97 1019.0
20260831063148 21 354 0.0 0.0 0.00 0.00 0.00 97 1019.1
20260831062648 21 354 0.0 0.0 0.00 0.00 0.00 97 1018.8
20260831062148 21 354 0.0 0.0 0.00 0.00 0.00 97 1018.8
20260831061645 21 354 0.0 0.0 0.00 0.00 0.00 97 1019.0
20260831061142 21 354 0.0 0.0 0.00 0.00 0.00 97 1018.8
20260831060638 21 354 0.0 0.0 0.00 0.00 0.00 97 1019.0
20260831060137 21 354 0.0 0.0 0.00 0.00 0.00 97 1018.6
20260831055637 21 354 0.0 0.0 0.00 0.00 0.00 97 1018.7
20260831055132 21 354 0.0 0.0 0.00 0.00 0.00 97 1018.7
20260831054632 21 354 0.0 0.0 0.00 0.00 0.00 96 1018.6
20260831054131 21 354 0.0 0.0 0.00 0.00 0.00 96 1018.7
20260831053626 21 354 0.0 0.0 0.00 0.00 0.00 96 1018.7
20260831053125 21 354 0.0 0.0 0.00 0.00 0.00 96 1018.9
20260831052624 21 354 0.0 0.0 0.00 0.00 0.00 96 1018.8
20260831052123 21 354 0.0 0.0 0.00 0.00 0.00 96 1018.9
20260831051622 22 354 0.0 0.0 0.00 0.00 0.00 96 1018.8
20260831051121 21 354 0.0 0.0 0.00 0.00 0.00 96 1018.9
20260831050621 21 354 0.0 0.0 0.00 0.00 0.00 95 1018.9
20260831050120 22 354 0.0 0.0 0.00 0.00 0.00 95 1018.8
20260831045620 22 354 0.0 0.0 0.00 0.00 0.00 95 1018.8
20260831045115 22 354 0.0 0.0 0.00 0.00 0.00 95 1019.1
20260831044611 22 354 0.0 0.0 0.00 0.00 0.00 95 1019.1
20260831044106 22 354 0.0 0.0 0.00 0.00 0.00 94 1018.8
20260831043601 22 354 0.0 0.0 0.00 0.00 0.00 94 1018.9
20260831043056 22 354 0.0 0.0 0.00 0.00 0.00 93 1018.8
20260831042555 22 354 0.0 0.0 0.00 0.00 0.00 92 1019.0
20260831042051 22 354 0.0 0.0 0.00 0.00 0.00 92 1019.2
20260831041546 22 354 0.0 0.0 0.00 0.00 0.00 91 1019.3
20260831041045 23 354 0.0 0.0 0.00 0.00 0.00 90 1019.2
20260831040540 23 354 0.0 0.0 0.00 0.00 0.00 89 1019.3
20260831040039 23 354 0.0 0.0 0.00 0.00 0.00 89 1019.2
20260831035537 23 354 0.0 0.0 0.00 0.00 0.00 88 1019.2
20260831035033 23 354 0.0 0.0 0.00 0.00 0.00 88 1019.0
20260831034532 23 355 0.0 3.2 0.00 0.00 0.00 88 1019.2
20260831034027 23 355 1.6 3.2 0.00 0.00 0.00 87 1019.1
20260831033523 23 358 4.8 4.8 0.00 0.00 0.00 86 1018.9
20260831033018 23 340 3.2 3.2 0.00 0.00 0.00 85 1019.1
20260831032518 23 341 3.2 4.8 0.00 0.00 0.00 85 1019.0
20260831032013 23 341 3.2 3.2 0.00 0.00 0.00 86 1019.1
20260831031513 24 340 0.0 0.0 0.00 0.00 0.00 84 1019.0
20260831031012 24 339 0.0 0.0 0.00 0.00 0.00 83 1019.1